• Em Portugal
  • Lista de países
  • Para 7 dias
  • Temperatura da água
  • Mapas de satélite
  • Mapa do tempo
  • Widgets de tempo
  • user-avatar
    Iniciar Sessão

    Previsão horária em Nachiczewan

    Hoje, 22 Outubro, Segunda-feira

    Tempo Temperatura Precipitação Vento Pressão Humidade
    00:00 +18°C° 0 mm 2 m/s 688 mmHg 51%
    01:00 +18°C° 0 mm 2 m/s 688 mmHg 54%
    02:00 +18°C° 0 mm 1 m/s 688 mmHg 56%
    03:00 +18°C° 0 mm 1 m/s 687 mmHg 57%
    04:00 +18°C° 0 mm 1 m/s 687 mmHg 58%
    05:00 +16°C° 0 mm 1 m/s 687 mmHg 60%
    06:00 +16°C° 0 mm 1 m/s 688 mmHg 62%
    07:00 +18°C° 0 mm 1 m/s 688 mmHg 57%
    08:00 +19°C° 0 mm 1 m/s 688 mmHg 52%
    09:00 +21°C° 0 mm 1 m/s 689 mmHg 47%
    10:00 +22°C° 0 mm 1 m/s 689 mmHg 44%
    11:00 +23°C° 0 mm 2 m/s 688 mmHg 41%
    12:00 +23°C° 0 mm 2 m/s 688 mmHg 38%
    13:00 +24°C° 0 mm 2 m/s 688 mmHg 37%
    14:00 +24°C° 0 mm 2 m/s 688 mmHg 36%
    15:00 +22°C° 0 mm 3 m/s 688 mmHg 37%
    16:00 +21°C° 0 mm 2 m/s 688 mmHg 39%
    17:00 +21°C° 0 mm 2 m/s 688 mmHg 42%
    18:00 +20°C° 0 mm 2 m/s 689 mmHg 44%
    19:00 +20°C° 0 mm 1 m/s 689 mmHg 46%
    20:00 +20°C° 0 mm 1 m/s 689 mmHg 48%
    21:00 +19°C° 0 mm 1 m/s 689 mmHg 50%
    22:00 +18°C° 0 mm 1 m/s 689 mmHg 51%
    23:00 +18°C° 0 mm 1 m/s 689 mmHg 53%

    Amanhã, 23 Outubro, Terça-feira

    Tempo Temperatura Precipitação Vento Pressão Humidade
    00:00 +18°C° 0 mm 1 m/s 689 mmHg 54%
    01:00 +16°C° 0 mm 1 m/s 689 mmHg 55%
    02:00 +16°C° 0 mm 1 m/s 689 mmHg 57%
    03:00 +15°C° 0 mm 1 m/s 689 mmHg 58%
    04:00 +15°C° 0 mm 1 m/s 689 mmHg 59%
    05:00 +14°C° 0 mm 1 m/s 688 mmHg 60%
    06:00 +14°C° 0 mm 1 m/s 688 mmHg 61%
    07:00 +15°C° 0 mm 1 m/s 689 mmHg 56%
    08:00 +18°C° 0 mm 1 m/s 689 mmHg 50%
    09:00 +19°C° 0 mm 1 m/s 689 mmHg 45%
    10:00 +20°C° 0 mm 1 m/s 689 mmHg 42%
    11:00 +20°C° 0 mm 2 m/s 689 mmHg 39%
    12:00 +21°C° 0 mm 2 m/s 689 mmHg 36%
    13:00 +21°C° 0 mm 2 m/s 688 mmHg 35%
    14:00 +23°C° 0 mm 2 m/s 688 mmHg 34%
    15:00 +23°C° 0 mm 2 m/s 688 mmHg 33%
    16:00 +21°C° 0 mm 2 m/s 688 mmHg 36%
    17:00 +20°C° 0 mm 2 m/s 687 mmHg 40%
    18:00 +20°C° 0 mm 1 m/s 687 mmHg 43%
    19:00 +20°C° 0 mm 1 m/s 687 mmHg 44%
    20:00 +19°C° 0 mm 1 m/s 687 mmHg 46%
    21:00 +18°C° 0 mm 1 m/s 688 mmHg 47%
    22:00 +18°C° 0 mm 1 m/s 687 mmHg 48%
    23:00 +18°C° 0 mm 1 m/s 687 mmHg 48%

    Depois de amanhã, 24 Outubro, Quarta-feira

    Tempo Temperatura Precipitação Vento Pressão Humidade
    00:00 +18°C° 0 mm 1 m/s 687 mmHg 49%
    01:00 +18°C° 0 mm 1 m/s 687 mmHg 49%
    02:00 +16°C° 0 mm 1 m/s 687 mmHg 50%
    03:00 +16°C° 0 mm 1 m/s 686 mmHg 51%
    04:00 +16°C° 0 mm 1 m/s 686 mmHg 52%
    05:00 +15°C° 0 mm 1 m/s 686 mmHg 53%
    06:00 +15°C° 0 mm 1 m/s 686 mmHg 54%
    07:00 +16°C° 0 mm 1 m/s 686 mmHg 51%
    08:00 +18°C° 0 mm 2 m/s 686 mmHg 47%
    09:00 +19°C° 0 mm 2 m/s 686 mmHg 44%
    10:00 +20°C° 0 mm 2 m/s 686 mmHg 42%
    11:00 +21°C° 0 mm 2 m/s 686 mmHg 39%
    12:00 +22°C° 0 mm 3 m/s 685 mmHg 37%
    13:00 +22°C° 0 mm 3 m/s 685 mmHg 36%
    14:00 +24°C° 0 mm 3 m/s 684 mmHg 36%
    15:00 +24°C° 0 mm 3 m/s 684 mmHg 35%
    16:00 +22°C° 0 mm 3 m/s 684 mmHg 38%
    17:00 +23°C° 0 mm 2 m/s 683 mmHg 40%
    18:00 +21°C° 0 mm 2 m/s 683 mmHg 43%
    19:00 +20°C° 0 mm 2 m/s 683 mmHg 45%
    20:00 +20°C° 0 mm 2 m/s 683 mmHg 47%
    21:00 +20°C° 0 mm 2 m/s 683 mmHg 49%
    22:00 +19°C° 0.3 mm 2 m/s 683 mmHg 51%
    23:00 +19°C° 0.3 mm 2 m/s 683 mmHg 54%

    25 Outubro, Quinta-feira

    Tempo Temperatura Precipitação Vento Pressão Humidade
    00:00 +18°C° 0.3 mm 2 m/s 682 mmHg 57%
    01:00 +18°C° 0.1 mm 2 m/s 682 mmHg 59%
    02:00 +17°C° 0.1 mm 2 m/s 682 mmHg 61%
    03:00 +16°C° 0.1 mm 2 m/s 682 mmHg 63%
    04:00 +16°C° 0 mm 2 m/s 681 mmHg 64%
    05:00 +16°C° 0 mm 3 m/s 681 mmHg 65%
    06:00 +16°C° 0 mm 3 m/s 681 mmHg 66%
    07:00 +17°C° 0 mm 3 m/s 681 mmHg 61%
    08:00 +18°C° 0 mm 4 m/s 681 mmHg 56%
    09:00 +20°C° 0 mm 4 m/s 681 mmHg 51%
    10:00 +21°C° 0 mm 5 m/s 680 mmHg 46%
    11:00 +22°C° 0 mm 6 m/s 680 mmHg 41%
    12:00 +24°C° 0 mm 7 m/s 679 mmHg 37%
    13:00 +24°C° 0.2 mm 7 m/s 679 mmHg 36%
    14:00 +24°C° 0.2 mm 7 m/s 678 mmHg 36%
    15:00 +24°C° 0.2 mm 7 m/s 678 mmHg 35%
    16:00 +23°C° 0.4 mm 6 m/s 678 mmHg 38%
    17:00 +22°C° 0.4 mm 6 m/s 678 mmHg 41%
    18:00 +21°C° 0.4 mm 5 m/s 678 mmHg 43%
    19:00 +20°C° 0.2 mm 5 m/s 678 mmHg 47%
    20:00 +19°C° 0.2 mm 4 m/s 678 mmHg 51%
    21:00 +18°C° 0.2 mm 3 m/s 678 mmHg 55%
    22:00 +18°C° 0 mm 3 m/s 678 mmHg 58%
    23:00 +18°C° 0 mm 3 m/s 678 mmHg 61%

    26 Outubro, Sexta-feira

    Tempo Temperatura Precipitação Vento Pressão Humidade
    00:00 +17°C° 0 mm 3 m/s 678 mmHg 64%
    01:00 +17°C° 0 mm 3 m/s 677 mmHg 64%
    02:00 +17°C° 0 mm 3 m/s 677 mmHg 65%
    03:00 +17°C° 0 mm 3 m/s 677 mmHg 65%
    04:00 +16°C° 0 mm 3 m/s 677 mmHg 66%
    05:00 +15°C° 0 mm 4 m/s 677 mmHg 66%
    06:00 +15°C° 0 mm 4 m/s 677 mmHg 67%
    07:00 +16°C° 0.2 mm 5 m/s 678 mmHg 63%
    08:00 +17°C° 0.2 mm 6 m/s 678 mmHg 59%
    09:00 +20°C° 0.2 mm 7 m/s 679 mmHg 55%
    10:00 +18°C° 0.7 mm 7 m/s 679 mmHg 54%
    11:00 +18°C° 0.7 mm 8 m/s 679 mmHg 53%
    12:00 +17°C° 0.7 mm 8 m/s 678 mmHg 52%
    13:00 +15°C° 1 mm 6 m/s 679 mmHg 57%
    14:00 +14°C° 1 mm 5 m/s 679 mmHg 61%
    15:00 +12°C° 1 mm 3 m/s 679 mmHg 66%
    16:00 +12°C° 0.7 mm 3 m/s 680 mmHg 66%
    17:00 +13°C° 0.7 mm 2 m/s 681 mmHg 66%
    18:00 +12°C° 0.7 mm 2 m/s 682 mmHg 66%
    19:00 +12°C° 0.1 mm 2 m/s 683 mmHg 66%
    20:00 +12°C° 0.1 mm 2 m/s 684 mmHg 65%
    21:00 +12°C° 0.1 mm 2 m/s 685 mmHg 65%
    22:00 +12°C° 0 mm 2 m/s 685 mmHg 64%
    23:00 +10°C° 0 mm 2 m/s 686 mmHg 64%

    27 Outubro, Sábado

    Tempo Temperatura Precipitação Vento Pressão Humidade
    00:00 +10°C° 0 mm 2 m/s 686 mmHg 63%
    01:00 +11°C° 0 mm 1 m/s 687 mmHg 63%
    02:00 +10°C° 0 mm 1 m/s 688 mmHg 63%
    03:00 +10°C° 0 mm 1 m/s 688 mmHg 62%
    04:00 +9°C° 0 mm 1 m/s 689 mmHg 62%
    05:00 +9°C° 0 mm 1 m/s 689 mmHg 61%
    06:00 +9°C° 0 mm 1 m/s 690 mmHg 61%
    07:00 +9°C° 0 mm 1 m/s 691 mmHg 55%
    08:00 +10°C° 0 mm 1 m/s 691 mmHg 50%
    09:00 +11°C° 0 mm 1 m/s 692 mmHg 45%
    10:00 +12°C° 0 mm 2 m/s 692 mmHg 41%
    11:00 +13°C° 0 mm 2 m/s 692 mmHg 37%
    12:00 +14°C° 0 mm 2 m/s 692 mmHg 33%
    13:00 +14°C° 0 mm 2 m/s 692 mmHg 32%
    14:00 +15°C° 0 mm 2 m/s 692 mmHg 31%
    15:00 +15°C° 0 mm 2 m/s 692 mmHg 30%
    16:00 +14°C° 0 mm 1 m/s 692 mmHg 32%
    17:00 +13°C° 0 mm 1 m/s 693 mmHg 35%
    18:00 +13°C° 0 mm 1 m/s 693 mmHg 38%
    19:00 +12°C° 0 mm 1 m/s 693 mmHg 40%
    20:00 +12°C° 0 mm 1 m/s 694 mmHg 41%
    21:00 +11°C° 0 mm 1 m/s 694 mmHg 43%
    22:00 +11°C° 0 mm 1 m/s 694 mmHg 44%
    23:00 +11°C° 0 mm 1 m/s 694 mmHg 45%

    28 Outubro, Domingo

    Tempo Temperatura Precipitação Vento Pressão Humidade
    00:00 +10°C° 0 mm 1 m/s 694 mmHg 46%
    01:00 +10°C° 0 mm 1 m/s 694 mmHg 47%
    02:00 +10°C° 0 mm 1 m/s 694 mmHg 47%
    03:00 +9°C° 0 mm 1 m/s 694 mmHg 47%
    04:00 +9°C° 0 mm 1 m/s 694 mmHg 47%
    05:00 +9°C° 0 mm 1 m/s 694 mmHg 48%
    06:00 +9°C° 0 mm 1 m/s 694 mmHg 48%
    07:00 +10°C° 0 mm 1 m/s 695 mmHg 42%
    08:00 +11°C° 0 mm 0 m/s 695 mmHg 37%
    09:00 +13°C° 0 mm 0 m/s 696 mmHg 31%
    10:00 +15°C° 0 mm 1 m/s 695 mmHg 29%
    11:00 +16°C° 0 mm 1 m/s 695 mmHg 26%
    12:00 +18°C° 0 mm 1 m/s 695 mmHg 23%
    13:00 +18°C° 0 mm 1 m/s 695 mmHg 22%
    14:00 +19°C° 0 mm 1 m/s 695 mmHg 22%
    15:00 +19°C° 0 mm 1 m/s 695 mmHg 21%
    16:00 +18°C° 0 mm 1 m/s 695 mmHg 24%
    17:00 +16°C° 0 mm 1 m/s 695 mmHg 28%
    18:00 +15°C° 0 mm 1 m/s 695 mmHg 32%
    19:00 +14°C° 0 mm 1 m/s 695 mmHg 33%
    20:00 +14°C° 0 mm 1 m/s 695 mmHg 34%
    21:00 +12°C° 0 mm 0 m/s 695 mmHg 35%
    22:00 +12°C° 0 mm 0 m/s 694 mmHg 36%
    23:00 +11°C° 0 mm 0 m/s 694 mmHg 37%
    Mostrar mais